Location: Biharia
(46.4333°N, 22.8000°E)
Time: 04:38:00
(UTC+00:00)

Cosmos 494 Rocket - Pass Details

Date: 27 May 2022
Orbit: 742 x 770 km, 74.1° (Epoch: 05 July)

Event Time Altitude Azimuth Distance (km) Brightness Sun altitude
Rises 22:07:39 0° 340° (NNW) 3,193 8.5 -22.0°
Reaches altitude 10° 22:10:03 10° 344° (NNW) 2,265 7.5 -22.1°
Maximum altitude 22:15:08 61° 65° (ENE) 843 4.2 -22.1°
Enters shadow 22:16:46 40° 126° (SE) 1,084 4.5 -22.1°
